When you browse on this site, cookies collect data to enhance your experience and personalize the content and advertising you see.
Visit our Privacy Policy to learn more. By continuing to use the site, you agree to this use of cookies and data.
  • Em Portugal
  • Lista de países
  • Para 7 dias
  • Temperatura da água
  • Mapa do tempo
  • Widgets de tempo
  • user-avatar
    Iniciar Sessão

    Previsão horária em Berat

    Hoje, 20 Novembro, Quarta-feira

    Tempo Temperatura Precipitação Vento Pressão Humidade
    00:00 +14°C° 1.7 mm 3 m/s 744 mmHg 88%
    01:00 +14°C° 1.7 mm 3 m/s 743 mmHg 92%
    02:00 +13°C° 5.3 mm 3 m/s 743 mmHg 93%
    03:00 +14°C° 5.3 mm 2 m/s 743 mmHg 94%
    04:00 +13°C° 5.3 mm 2 m/s 742 mmHg 95%
    05:00 +13°C° 2.7 mm 2 m/s 742 mmHg 92%
    06:00 +13°C° 2.7 mm 2 m/s 743 mmHg 89%
    07:00 +13°C° 2.7 mm 2 m/s 743 mmHg 86%
    08:00 +13°C° 0.3 mm 3 m/s 743 mmHg 81%
    09:00 +16°C° 0.3 mm 3 m/s 744 mmHg 77%
    10:00 +17°C° 0.3 mm 3 m/s 744 mmHg 72%
    11:00 +17°C° 0 mm 3 m/s 744 mmHg 68%
    12:00 +18°C° 0 mm 3 m/s 744 mmHg 64%
    13:00 +19°C° 0 mm 3 m/s 744 mmHg 61%
    14:00 +18°C° 0 mm 3 m/s 744 mmHg 65%
    15:00 +17°C° 0 mm 2 m/s 744 mmHg 70%
    16:00 +16°C° 0 mm 2 m/s 744 mmHg 75%
    17:00 +15°C° 0 mm 2 m/s 744 mmHg 77%
    18:00 +14°C° 0 mm 2 m/s 744 mmHg 80%
    19:00 +14°C° 0 mm 1 m/s 744 mmHg 82%
    20:00 +13°C° 0 mm 1 m/s 745 mmHg 83%
    21:00 +13°C° 0 mm 1 m/s 745 mmHg 83%
    22:00 +13°C° 0 mm 2 m/s 745 mmHg 84%
    23:00 +12°C° 0 mm 2 m/s 745 mmHg 83%

    Amanhã, 21 Novembro, Quinta-feira

    Tempo Temperatura Precipitação Vento Pressão Humidade
    00:00 +12°C° 0 mm 2 m/s 745 mmHg 82%
    01:00 +12°C° 0 mm 2 m/s 745 mmHg 82%
    02:00 +12°C° 0 mm 2 m/s 744 mmHg 81%
    03:00 +12°C° 0 mm 2 m/s 744 mmHg 79%
    04:00 +10°C° 0 mm 2 m/s 744 mmHg 78%
    05:00 +10°C° 0 mm 2 m/s 744 mmHg 77%
    06:00 +10°C° 0 mm 2 m/s 744 mmHg 75%
    07:00 +10°C° 0 mm 2 m/s 744 mmHg 74%
    08:00 +13°C° 0 mm 1 m/s 744 mmHg 69%
    09:00 +14°C° 0 mm 1 m/s 744 mmHg 63%
    10:00 +16°C° 0 mm 1 m/s 744 mmHg 58%
    11:00 +16°C° 0 mm 1 m/s 744 mmHg 55%
    12:00 +18°C° 0 mm 1 m/s 743 mmHg 52%
    13:00 +18°C° 0 mm 1 m/s 743 mmHg 50%
    14:00 +16°C° 0 mm 1 m/s 743 mmHg 56%
    15:00 +15°C° 0 mm 1 m/s 743 mmHg 62%
    16:00 +14°C° 0 mm 1 m/s 743 mmHg 68%
    17:00 +13°C° 0 mm 0 m/s 743 mmHg 69%
    18:00 +13°C° 0 mm 0 m/s 743 mmHg 70%
    19:00 +12°C° 0 mm 0 m/s 743 mmHg 71%
    20:00 +12°C° 0 mm 0 m/s 743 mmHg 71%
    21:00 +13°C° 0 mm 1 m/s 743 mmHg 71%
    22:00 +13°C° 0 mm 1 m/s 743 mmHg 72%
    23:00 +12°C° 0 mm 1 m/s 743 mmHg 72%

    Depois de amanhã, 22 Novembro, Sexta-feira

    Tempo Temperatura Precipitação Vento Pressão Humidade
    00:00 +11°C° 0 mm 0 m/s 743 mmHg 73%
    01:00 +11°C° 0 mm 0 m/s 743 mmHg 74%
    02:00 +11°C° 0 mm 0 m/s 743 mmHg 74%
    03:00 +11°C° 0 mm 0 m/s 743 mmHg 74%
    04:00 +11°C° 0 mm 0 m/s 743 mmHg 75%
    05:00 +11°C° 0 mm 0 m/s 743 mmHg 75%
    06:00 +12°C° 0 mm 1 m/s 743 mmHg 75%
    07:00 +12°C° 0 mm 1 m/s 743 mmHg 75%
    08:00 +13°C° 0 mm 1 m/s 744 mmHg 71%
    09:00 +13°C° 0 mm 0 m/s 744 mmHg 66%
    10:00 +15°C° 0 mm 0 m/s 744 mmHg 62%
    11:00 +16°C° 0 mm 1 m/s 744 mmHg 61%
    12:00 +18°C° 0 mm 1 m/s 744 mmHg 61%
    13:00 +18°C° 0 mm 1 m/s 744 mmHg 60%
    14:00 +16°C° 0 mm 1 m/s 744 mmHg 65%
    15:00 +15°C° 0 mm 1 m/s 744 mmHg 71%
    16:00 +14°C° 0 mm 1 m/s 744 mmHg 76%
    17:00 +14°C° 0 mm 1 m/s 744 mmHg 78%
    18:00 +13°C° 0 mm 1 m/s 744 mmHg 81%
    19:00 +12°C° 0 mm 0 m/s 744 mmHg 83%
    20:00 +13°C° 0 mm 1 m/s 745 mmHg 83%
    21:00 +12°C° 0 mm 1 m/s 745 mmHg 83%
    22:00 +12°C° 0 mm 1 m/s 745 mmHg 83%
    23:00 +12°C° 0 mm 1 m/s 745 mmHg 83%

    23 Novembro, Sábado

    Tempo Temperatura Precipitação Vento Pressão Humidade
    00:00 +12°C° 0 mm 1 m/s 745 mmHg 83%
    01:00 +12°C° 0 mm 1 m/s 745 mmHg 83%
    02:00 +12°C° 0 mm 1 m/s 745 mmHg 84%
    03:00 +12°C° 0 mm 1 m/s 745 mmHg 84%
    04:00 +12°C° 0 mm 1 m/s 745 mmHg 84%
    05:00 +12°C° 0 mm 1 m/s 745 mmHg 84%
    06:00 +12°C° 0 mm 1 m/s 745 mmHg 84%
    07:00 +12°C° 0 mm 2 m/s 745 mmHg 84%
    08:00 +13°C° 0 mm 1 m/s 745 mmHg 78%
    09:00 +15°C° 0 mm 1 m/s 745 mmHg 72%
    10:00 +16°C° 0 mm 1 m/s 745 mmHg 65%
    11:00 +18°C° 0 mm 1 m/s 745 mmHg 62%
    12:00 +18°C° 0 mm 1 m/s 745 mmHg 58%
    13:00 +19°C° 0 mm 1 m/s 744 mmHg 55%
    14:00 +18°C° 0 mm 1 m/s 744 mmHg 59%
    15:00 +16°C° 0 mm 1 m/s 744 mmHg 64%
    16:00 +15°C° 0 mm 1 m/s 744 mmHg 68%
    17:00 +15°C° 0 mm 1 m/s 744 mmHg 69%
    18:00 +14°C° 0 mm 2 m/s 744 mmHg 69%
    19:00 +14°C° 0 mm 2 m/s 744 mmHg 69%
    20:00 +13°C° 0 mm 2 m/s 744 mmHg 70%
    21:00 +13°C° 0 mm 2 m/s 745 mmHg 71%
    22:00 +13°C° 0 mm 2 m/s 745 mmHg 72%
    23:00 +13°C° 0 mm 2 m/s 745 mmHg 73%

    24 Novembro, Domingo

    Tempo Temperatura Precipitação Vento Pressão Humidade
    00:00 +13°C° 0 mm 2 m/s 745 mmHg 74%
    01:00 +13°C° 0 mm 2 m/s 745 mmHg 75%
    02:00 +13°C° 0 mm 2 m/s 744 mmHg 75%
    03:00 +12°C° 0 mm 2 m/s 744 mmHg 76%
    04:00 +12°C° 0 mm 2 m/s 744 mmHg 76%
    05:00 +12°C° 0 mm 2 m/s 744 mmHg 77%
    06:00 +12°C° 0 mm 2 m/s 744 mmHg 78%
    07:00 +12°C° 0 mm 2 m/s 744 mmHg 79%
    08:00 +13°C° 0 mm 2 m/s 744 mmHg 73%
    09:00 +15°C° 0 mm 2 m/s 744 mmHg 68%
    10:00 +16°C° 0 mm 2 m/s 744 mmHg 62%
    11:00 +17°C° 0 mm 2 m/s 744 mmHg 59%
    12:00 +18°C° 0 mm 2 m/s 743 mmHg 56%
    13:00 +19°C° 0 mm 2 m/s 742 mmHg 53%
    14:00 +18°C° 0 mm 2 m/s 742 mmHg 58%
    15:00 +17°C° 0 mm 2 m/s 742 mmHg 62%
    16:00 +16°C° 0 mm 2 m/s 741 mmHg 67%
    17:00 +15°C° 0 mm 2 m/s 741 mmHg 68%
    18:00 +14°C° 0 mm 3 m/s 741 mmHg 69%
    19:00 +14°C° 0 mm 3 m/s 741 mmHg 70%
    20:00 +14°C° 0 mm 3 m/s 741 mmHg 71%
    21:00 +14°C° 0 mm 3 m/s 741 mmHg 72%
    22:00 +14°C° 0 mm 3 m/s 741 mmHg 73%
    23:00 +14°C° 0 mm 3 m/s 740 mmHg 73%

    25 Novembro, Segunda-feira

    Tempo Temperatura Precipitação Vento Pressão Humidade
    00:00 +13°C° 0 mm 3 m/s 740 mmHg 73%
    01:00 +13°C° 0 mm 3 m/s 740 mmHg 74%
    02:00 +13°C° 0 mm 3 m/s 740 mmHg 74%
    03:00 +13°C° 0 mm 3 m/s 739 mmHg 75%
    04:00 +14°C° 0 mm 2 m/s 739 mmHg 75%
    05:00 +14°C° 0 mm 2 m/s 739 mmHg 76%
    06:00 +14°C° 0 mm 2 m/s 739 mmHg 77%
    07:00 +14°C° 0 mm 2 m/s 739 mmHg 77%
    08:00 +15°C° 0 mm 2 m/s 739 mmHg 73%
    09:00 +16°C° 0 mm 2 m/s 740 mmHg 70%
    10:00 +17°C° 0 mm 3 m/s 740 mmHg 66%
    11:00 +18°C° 0 mm 2 m/s 739 mmHg 63%
    12:00 +18°C° 0 mm 2 m/s 739 mmHg 61%
    13:00 +19°C° 0 mm 2 m/s 739 mmHg 58%
    14:00 +18°C° 0 mm 2 m/s 739 mmHg 62%
    15:00 +17°C° 0 mm 2 m/s 739 mmHg 66%
    16:00 +16°C° 0 mm 2 m/s 739 mmHg 70%
    17:00 +16°C° 0 mm 2 m/s 739 mmHg 72%
    18:00 +15°C° 0 mm 2 m/s 739 mmHg 73%
    19:00 +15°C° 0 mm 2 m/s 739 mmHg 75%
    20:00 +15°C° 0 mm 2 m/s 739 mmHg 75%
    21:00 +14°C° 0 mm 2 m/s 739 mmHg 76%
    22:00 +14°C° 0 mm 2 m/s 739 mmHg 76%
    23:00 +14°C° 0 mm 1 m/s 739 mmHg 77%
    Mostrar mais